This is the latest recevied weather packets stored in our database for station/object N4WFF. If no packets are shown the sender has not sent any weather packets the latest 10 day(s).
| Time | Temp. | Humidity | Pressure | Rain* | Wind** | Luminosity | Snow |
|---|---|---|---|---|---|---|---|
| 1777491056 | 27.78° C | 66% | 1013 hPa | 0 mm | - | 420 W/m² | - |
| 1777490756 | 27.78° C | 65% | 1013.1 hPa | 0 mm | - | 522 W/m² | - |
| 1777490456 | 28.33° C | 64% | 1013.1 hPa | 0 mm | - | 485 W/m² | - |
| 1777490156 | 28.33° C | 64% | 1013.1 hPa | 0 mm | - | 327 W/m² | - |
| 1777489856 | 28.33° C | 64% | 1013 hPa | 0 mm | - | 1015 W/m² | - |
| 1777489555 | 27.78° C | 64% | 1013 hPa | 0 mm | - | 1003 W/m² | - |
| 1777489256 | 27.78° C | 68% | 1013.2 hPa | 0 mm | - | 529 W/m² | - |
| 1777488956 | 27.78° C | 67% | 1013.4 hPa | 0 mm | - | 261 W/m² | - |
| 1777488656 | 27.78° C | 66% | 1013.5 hPa | 0 mm | - | 1056 W/m² | - |
| 1777488356 | 27.22° C | 69% | 1013.3 hPa | 0 mm | - | 941 W/m² | - |
| 1777488055 | 27.78° C | 69% | 1012.9 hPa | 0 mm | - | 537 W/m² | - |
| 1777487756 | 27.78° C | 68% | 1013.2 hPa | 0 mm | - | 623 W/m² | - |
| 1777487455 | 27.78° C | 66% | 1013.6 hPa | 0 mm | - | 522 W/m² | - |
| 1777487157 | 27.78° C | 68% | 1013.9 hPa | 0 mm | - | 526 W/m² | - |
| 1777486857 | 27.78° C | 68% | 1013.8 hPa | 0 mm | - | 633 W/m² | - |
| 1777486555 | 27.78° C | 68% | 1014.1 hPa | 0 mm | - | 642 W/m² | - |
| 1777486256 | 27.78° C | 69% | 1014.3 hPa | 0 mm | - | 870 W/m² | - |
| 1777485955 | 27.22° C | 70% | 1014.4 hPa | 0 mm | - | 857 W/m² | - |
| 1777485655 | 27.22° C | 70% | 1014.7 hPa | 0 mm | - | 910 W/m² | - |
| 1777485356 | 26.67° C | 71% | 1014.7 hPa | 0 mm | - | 1060 W/m² | - |
| 1777485056 | 26.67° C | 72% | 1014.8 hPa | 0 mm | - | 924 W/m² | - |
| 1777484756 | 26.67° C | 72% | 1015 hPa | 0 mm | - | 347 W/m² | - |
| 1777484456 | 27.22° C | 72% | 1014.9 hPa | 0 mm | - | 223 W/m² | - |
| 1777484157 | 27.22° C | 69% | 1014.8 hPa | 0 mm | - | 227 W/m² | - |
| 1777483857 | 27.78° C | 68% | 1014.7 hPa | 0 mm | - | 334 W/m² | - |
* Rain latest hour (hover to see other rain measurements)
** Current wind speed in m/s (hover to see current wind gust speed)